Location: Chacón
(10.5789°N, 66.9317°W)
Time: 23:29:05
(UTC+00:00)

Cosmos 292 Rocket - Pass Details

Date: 23 May 2024
Orbit: 667 x 689 km, 74.0° (Epoch: 15 June)

Event Time Altitude Azimuth Distance (km) Brightness Sun altitude
Exits shadow 09:14:00 - 198° (SSW) 2,427 6.2 -12.3°
Reaches altitude 10° 09:14:52 10° 199° (SSW) 2,085 5.9 -12.1°
Maximum altitude 09:19:32 70° 283° (WNW) 707 3.7 -11.1°
Drops below altitude 10° 09:24:12 10° 7° (N) 2,088 6.7 -10.0°
Sets 09:26:30 0° 9° (N) 3,003 7.6 -9.5°
